Bridgeport, WV

9:25 AM EDT on September 29, 2016 (GMT -0400)
Benedum

Weather History for KCKB - March, 2013

Change the Weather History Date:

Friday, March 15, 2013

  Actual Average Record
Temperature  
Mean Temperature 40 °F -  
Max Temperature 53 °F 51 °F 83 °F (1973)
Min Temperature 27 °F 28 °F -1 °F (1993)
Degree Days  
Heating Degree Days 25    
Moisture  
Dew Point 24 °F    
Average Humidity 52    
Maximum Humidity 61    
Minimum Humidity 41    
Precipitation  
Precipitation 0.00 in - - ()
Sea Level Pressure  
Sea Level Pressure 29.98 in    
Wind  
Wind Speed 6 mph (WSW)    
Max Wind Speed 14 mph    
Max Gust Speed 20 mph    
Visibility 10 miles    
Events      
Averages and records for this station are not official NWS values.
T = Trace of Precipitation, MM = Missing Value Source: NWS Daily Summary

Daily Weather History Graph

Daily Weather History Graph

Search for Another Location

Airport or City:

Trip Planner

Search our weather history database for the weather conditions in past years. The results will help you decide how hot, cold, wet, or windy it might be!

Date:

Astronomy

Mar. 15, 2013 Rise Set
Actual Time 7:31 AM EDT 7:28 PM EDT
Civil Twilight 7:05 AM EDT 7:54 PM EDT
Nautical Twilight 6:34 AM EDT 8:26 PM EDT
Astronomical Twilight 6:02 AM EDT 8:57 PM EDT
Moon 9:22 AM EDT (3/15) 11:38 PM EDT (3/15)
Length of Visible Light 12h 49m
Length of Day
11h 56m
Waxing Crescent, 15% of the Moon is Illuminated
Mar 15
Waxing Crescent
Mar 19
First Quarter
Mar 27
Full
Apr 3
Last Quarter
Apr 10
New

Hourly Weather History & Observations

Time (EDT) Temp. Windchill Dew Point Humidity Pressure Visibility Wind Dir Wind Speed Gust Speed Precip Events Conditions
12:53 AM 30.0 °F 26.5 °F 16.0 °F 56% 30.16 in 10.0 mi SSW 3.5 mph - N/A   Clear
1:53 AM 28.9 °F - 16.0 °F 58% 30.13 in 10.0 mi Calm Calm - N/A   Clear
2:53 AM 28.0 °F - 15.1 °F 58% 30.13 in 10.0 mi Calm Calm - N/A   Clear
3:53 AM 27.0 °F - 15.1 °F 61% 30.12 in 10.0 mi Calm Calm - N/A   Clear
5:53 AM 28.0 °F 22.8 °F 15.1 °F 58% 30.10 in 10.0 mi South 4.6 mph - N/A   Clear
6:53 AM 28.0 °F 20.8 °F 16.0 °F 61% 30.08 in 10.0 mi South 6.9 mph - N/A   Clear
7:53 AM 28.9 °F 21.9 °F 16.0 °F 58% 30.07 in 10.0 mi SSW 6.9 mph - N/A   Scattered Clouds
8:53 AM 32.0 °F 25.6 °F 18.0 °F 56% 30.07 in 10.0 mi SSW 6.9 mph - N/A   Partly Cloudy
9:53 AM 36.0 °F 28.5 °F 21.9 °F 57% 30.05 in 10.0 mi SSW 10.4 mph - N/A   Partly Cloudy
10:53 AM 37.9 °F 29.6 °F 25.0 °F 60% 30.03 in 10.0 mi SSW 13.8 mph - N/A   Overcast
11:37 AM 41.0 °F 35.8 °F 26.6 °F 57% 30.00 in 10.0 mi WSW 8.1 mph 17.3 mph N/A   Overcast
11:48 AM 41.0 °F 34.3 °F 24.8 °F 53% 30.00 in 10.0 mi West 11.5 mph 18.4 mph N/A   Overcast
11:53 AM 41.0 °F 34.3 °F 25.0 °F 53% 30.01 in 10.0 mi WSW 11.5 mph 17.3 mph N/A   Overcast
12:53 PM 45.0 °F 39.7 °F 28.0 °F 52% 29.97 in 10.0 mi SSW 10.4 mph - N/A   Overcast
1:53 PM 48.9 °F - 27.0 °F 43% 29.93 in 10.0 mi WSW 13.8 mph 19.6 mph N/A   Partly Cloudy
2:53 PM 50.0 °F - 28.0 °F 43% 29.89 in 10.0 mi West 10.4 mph 19.6 mph N/A   Clear
3:53 PM 51.1 °F - 28.9 °F 43% 29.87 in 10.0 mi SW 11.5 mph - N/A   Clear
4:53 PM 52.0 °F - 28.9 °F 41% 29.85 in 10.0 mi West 9.2 mph - N/A   Clear
5:53 PM 53.1 °F - 30.0 °F 41% 29.83 in 10.0 mi WSW 9.2 mph - N/A   Partly Cloudy
6:53 PM 52.0 °F - 30.0 °F 43% 29.84 in 10.0 mi West 6.9 mph - N/A   Overcast
7:53 PM 50.0 °F - 30.0 °F 46% 29.85 in 10.0 mi West 4.6 mph - N/A   Overcast
8:53 PM 50.0 °F - 30.9 °F 48% 29.86 in 10.0 mi West 4.6 mph - N/A   Scattered Clouds
9:53 PM 50.0 °F - 30.9 °F 48% 29.86 in 10.0 mi West 4.6 mph - N/A   Mostly Cloudy
10:53 PM 48.9 °F - 30.9 °F 50% 29.86 in 10.0 mi West 5.8 mph - N/A   Overcast
11:53 PM 48.0 °F - 32.0 °F 54% 29.85 in 10.0 mi WNW 6.9 mph - N/A   Overcast